Platteville, WI

2:13 PM CST on January 19, 2018 (GMT -0600)
Platteville Municipal

Weather History for KPVB - January, 2014

Change the Weather History Date:

Sunday, January 19, 2014

  Actual Average (KDBQ) Record (KDBQ)
Temperature  
Mean Temperature 21 °F -  
Max Temperature 36 °F 25 °F 51 °F (1921)
Min Temperature 6 °F 9 °F -27 °F (1985)
Degree Days  
Heating Degree Days 44    
Moisture  
Dew Point 20 °F    
Average Humidity 79    
Maximum Humidity 89    
Minimum Humidity 68    
Precipitation  
Precipitation 0.00 in - - ()
Sea Level Pressure  
Sea Level Pressure 29.64 in    
Wind  
Wind Speed 11 mph (WSW)    
Max Wind Speed 21 mph    
Max Gust Speed 25 mph    
Visibility 10 miles    
Events      
Averages and records for this station are not official NWS values.
T = Trace of Precipitation, MM = Missing Value Source: NWS Daily Summary

Daily Weather History Graph

Daily Weather History Graph

Search for Another Location

Airport or City:

Trip Planner

Search our weather history database for the weather conditions in past years. The results will help you decide how hot, cold, wet, or windy it might be!

Date:

Astronomy

Jan. 19, 2014 Rise Set
Actual Time 7:27 AM CST 4:58 PM CST
Civil Twilight 6:56 AM CST 5:29 PM CST
Nautical Twilight 6:21 AM CST 6:03 PM CST
Astronomical Twilight 5:47 AM CST 6:37 PM CST
Moon 8:42 PM CST 8:51 AM CST
Length of Visible Light 10h 33m
Length of Day
9h 31m
Waning Gibbous, 89% of the Moon is Illuminated
Jan 19
Waning Gibbous
Jan 23
Last Quarter
Jan 30
New
Feb 6
First Quarter
Feb 14
Full

Hourly Weather History & Observations

Time (CST) Temp. Windchill Dew Point Humidity Pressure Visibility Wind Dir Wind Speed Gust Speed Precip Events Conditions
12:15 AM 7.2 °F 0.3 °F 3.6 °F 85% 29.85 in 10.0 mi WSW 3.5 mph - N/A   Clear
12:35 AM 7.5 °F -1.1 °F 4.1 °F 86% 29.84 in 10.0 mi WSW 4.6 mph - N/A   Clear
12:55 AM 8.8 °F 0.4 °F 5.7 °F 87% 29.83 in 10.0 mi SW 4.6 mph - N/A   Clear
1:15 AM 6.8 °F -4.8 °F 3.2 °F 85% 29.82 in 10.0 mi SSW 6.9 mph - N/A   Clear
1:35 AM 8.2 °F -3.0 °F 5.0 °F 87% 29.81 in 10.0 mi SW 6.9 mph - N/A   Clear
1:55 AM 9.3 °F -2.8 °F 6.1 °F 87% 29.82 in 10.0 mi WSW 8.1 mph - N/A   Clear
2:15 AM 10.0 °F -3.7 °F 7.0 °F 87% 29.82 in 10.0 mi SW 10.4 mph - N/A   Clear
2:35 AM 10.6 °F -1.3 °F 7.5 °F 87% 29.82 in 10.0 mi SW 8.1 mph - N/A   Clear
2:55 AM 11.1 °F -0.6 °F 7.7 °F 86% 29.81 in 10.0 mi SW 8.1 mph - N/A   Clear
3:15 AM 12.0 °F -0.4 °F 9.0 °F 88% 29.79 in 10.0 mi SSW 9.2 mph - N/A   Clear
3:35 AM 12.2 °F -0.2 °F 9.1 °F 88% 29.78 in 10.0 mi SSW 9.2 mph - N/A   Clear
3:55 AM 13.6 °F -1.3 °F 10.9 °F 89% 29.76 in 10.0 mi SW 13.8 mph - N/A   Clear
4:15 AM 14.0 °F 1.2 °F 11.3 °F 89% 29.76 in 10.0 mi SW 10.4 mph - N/A   Clear
4:35 AM 14.7 °F 0.7 °F 12.0 °F 89% 29.75 in 10.0 mi SW 12.7 mph - N/A   Clear
4:55 AM 15.3 °F 0.2 °F 12.6 °F 89% 29.74 in 10.0 mi SW 15.0 mph - N/A   Clear
5:15 AM 15.6 °F 0.1 °F 12.9 °F 89% 29.73 in 10.0 mi SW 16.1 mph - N/A   Clear
5:35 AM 15.6 °F 0.6 °F 12.7 °F 88% 29.72 in 10.0 mi SSW 15.0 mph - N/A   Clear
5:55 AM 14.7 °F -1.1 °F 11.7 °F 88% 29.71 in 10.0 mi SSW 16.1 mph - N/A   Clear
6:15 AM 14.9 °F -0.3 °F 11.8 °F 88% 29.70 in 10.0 mi SSW 15.0 mph - N/A   Clear
6:35 AM 15.4 °F 1.0 °F 12.2 °F 87% 29.69 in 10.0 mi SW 13.8 mph - N/A   Clear
6:55 AM 15.3 °F 1.4 °F 12.0 °F 87% 29.68 in 10.0 mi SSW 12.7 mph - N/A   Clear
7:15 AM 14.7 °F 1.4 °F 11.7 °F 88% 29.68 in 10.0 mi SSW 11.5 mph - N/A   Clear
7:35 AM 16.7 °F 3.8 °F 13.8 °F 88% 29.67 in 10.0 mi SSW 11.5 mph - N/A   Clear
7:55 AM 19.4 °F 5.0 °F 16.3 °F 88% 29.67 in 10.0 mi SW 16.1 mph - N/A   Clear
8:15 AM 21.6 °F 6.9 °F 17.6 °F 85% 29.66 in 10.0 mi SW 18.4 mph - N/A   Clear
8:35 AM 21.7 °F 7.5 °F 17.6 °F 84% 29.66 in 10.0 mi SW 17.3 mph - N/A   Clear
8:55 AM 22.8 °F 8.5 °F 18.1 °F 82% 29.66 in 4.0 mi SW 18.4 mph 23.0 mph N/A   Clear
9:15 AM 23.7 °F 10.1 °F 18.5 °F 80% 29.66 in 1.8 mi SW 17.3 mph - N/A   Unknown
9:35 AM 25.5 °F 12.4 °F 19.2 °F 77% 29.66 in 3.0 mi WSW 17.3 mph - N/A   Clear
9:55 AM 26.4 °F 15.5 °F 19.4 °F 75% 29.65 in 10.0 mi WSW 12.7 mph - N/A   Clear
10:15 AM 27.0 °F 14.7 °F 19.8 °F 74% 29.64 in 7.0 mi SW 16.1 mph 20.7 mph N/A   Clear
10:35 AM 27.1 °F 14.5 °F 20.3 °F 75% 29.64 in 7.0 mi SW 17.3 mph - N/A   Clear
10:55 AM 28.4 °F 16.6 °F 20.7 °F 73% 29.63 in 7.0 mi SW 16.1 mph 21.9 mph N/A   Clear
11:15 AM 28.9 °F 17.7 °F 21.2 °F 73% 29.63 in 10.0 mi SW 15.0 mph - N/A   Clear
11:35 AM 29.3 °F 18.2 °F 21.2 °F 72% 29.63 in 10.0 mi SW 15.0 mph - N/A   Clear
11:55 AM 30.0 °F 19.5 °F 21.4 °F 70% 29.63 in 10.0 mi SW 13.8 mph - N/A   Clear
12:15 PM 30.6 °F 19.8 °F 21.6 °F 69% 29.62 in 10.0 mi WSW 15.0 mph 19.6 mph N/A   Clear
12:35 PM 30.9 °F 19.8 °F 22.1 °F 70% 29.60 in 10.0 mi WSW 16.1 mph 23.0 mph N/A   Clear
12:55 PM 31.8 °F 19.6 °F 23.2 °F 70% 29.59 in 7.0 mi SW 20.7 mph 25.3 mph N/A   Clear
1:15 PM 32.0 °F 19.8 °F 23.7 °F 71% 29.58 in 10.0 mi SW 20.7 mph - N/A   Clear
1:35 PM 32.2 °F 21.1 °F 24.1 °F 72% 29.56 in 10.0 mi SW 17.3 mph - N/A   Clear
1:55 PM 33.1 °F 21.9 °F 24.4 °F 71% 29.54 in 10.0 mi SW 18.4 mph - N/A   Clear
2:15 PM 32.9 °F 21.3 °F 24.6 °F 72% 29.53 in 10.0 mi SW 19.6 mph - N/A   Clear
2:35 PM 33.3 °F 22.5 °F 24.8 °F 71% 29.52 in 10.0 mi SW 17.3 mph - N/A   Clear
2:55 PM 34.0 °F 24.6 °F 25.3 °F 71% 29.50 in 10.0 mi SSW 13.8 mph - N/A   Clear
3:15 PM 34.2 °F 25.7 °F 25.7 °F 71% 29.52 in 10.0 mi SW 11.5 mph - N/A   Clear
3:35 PM 34.7 °F 25.1 °F 25.7 °F 70% 29.52 in 10.0 mi SW 15.0 mph - N/A   Clear
3:55 PM 36.0 °F 26.3 °F 26.2 °F 68% 29.52 in 10.0 mi SW 16.1 mph 25.3 mph N/A   Clear
4:15 PM 34.9 °F 25.3 °F 26.2 °F 71% 29.52 in 10.0 mi SW 15.0 mph - N/A   Clear
4:35 PM 36.0 °F 27.5 °F 26.4 °F 68% 29.53 in 10.0 mi WSW 12.7 mph - N/A   Clear
4:55 PM 34.3 °F 25.9 °F 26.1 °F 72% 29.53 in 10.0 mi WSW 11.5 mph - N/A   Clear
5:15 PM 31.8 °F 23.9 °F 24.8 °F 75% 29.53 in 10.0 mi SW 9.2 mph - N/A   Clear
5:35 PM 31.3 °F 24.7 °F 24.6 °F 76% 29.52 in 10.0 mi SW 6.9 mph - N/A   Clear
5:55 PM 31.1 °F 24.5 °F 24.3 °F 76% 29.51 in 10.0 mi SSW 6.9 mph - N/A   Clear
6:15 PM 30.6 °F 24.7 °F 24.8 °F 79% 29.51 in 10.0 mi SSW 5.8 mph - N/A   Clear
6:55 PM 35.2 °F 27.1 °F 28.0 °F 75% 29.52 in 10.0 mi WSW 11.5 mph - N/A   Clear
7:15 PM 34.7 °F 26.4 °F 28.0 °F 77% 29.52 in 10.0 mi WSW 11.5 mph - N/A   Clear
7:35 PM 34.7 °F 25.9 °F 28.2 °F 77% 29.52 in 10.0 mi West 12.7 mph - N/A   Clear
7:55 PM 35.8 °F 27.3 °F 28.9 °F 76% 29.53 in 10.0 mi West 12.7 mph 19.6 mph N/A   Clear
8:15 PM 36.1 °F 27.3 °F 29.1 °F 76% 29.54 in 10.0 mi West 13.8 mph - N/A   Clear
8:35 PM 36.0 °F 28.5 °F 29.3 °F 77% 29.54 in 10.0 mi WNW 10.4 mph - N/A   Clear
8:55 PM 35.6 °F 28.0 °F 28.9 °F 77% 29.55 in 10.0 mi West 10.4 mph - N/A   Clear
9:15 PM 35.1 °F 26.9 °F 28.4 °F 77% 29.57 in 10.0 mi WNW 11.5 mph - N/A   Clear
9:35 PM 34.0 °F 24.6 °F 28.0 °F 79% 29.58 in 10.0 mi WNW 13.8 mph - N/A   Scattered Clouds
9:55 PM 34.7 °F 25.9 °F 28.6 °F 78% 29.59 in 10.0 mi WNW 12.7 mph - N/A   Mostly Cloudy
10:15 PM 35.1 °F 26.4 °F 28.8 °F 78% 29.59 in 10.0 mi WNW 12.7 mph 17.3 mph N/A   Overcast
10:35 PM 35.1 °F 25.9 °F 28.4 °F 77% 29.60 in 10.0 mi WNW 13.8 mph 17.3 mph N/A   Overcast
10:55 PM 35.1 °F 25.9 °F 28.4 °F 77% 29.62 in 10.0 mi WNW 13.8 mph - N/A   Overcast
11:15 PM 35.1 °F 26.9 °F 28.4 °F 77% 29.63 in 10.0 mi WNW 11.5 mph - N/A   Overcast
11:35 PM 35.4 °F 26.0 °F 27.9 °F 74% 29.64 in 10.0 mi WNW 15.0 mph - N/A   Overcast
11:55 PM 34.9 °F 26.2 °F 28.0 °F 76% 29.64 in 10.0 mi WNW 12.7 mph - N/A   Overcast